Location: Bieujac
(44.5398°N, 0.1549°W)
Time: 13:08:25
(UTC+00:00)

H-2A R/B - Pass Details

Date: 17 November 2019
Orbit: 500 x 543 km, 97.3° (Epoch: 11 December)

Event Time Altitude Azimuth Distance (km) Brightness Sun altitude
Rises 06:03:11 0° 17° (NNE) 2,616 6.3 -10.1°
Reaches altitude 10° 06:05:21 10° 24° (NNE) 1,722 5.4 -9.7°
Maximum altitude 06:08:56 47° 99° (E) 677 3.9 -9.1°
Drops below altitude 10° 06:12:28 10° 174° (S) 1,701 5.7 -8.5°
Sets 06:14:35 0° 180° (S) 2,580 6.5 -8.2°
